Location: Tamazert
(32.6352°N, 5.2072°W)
Time: 03:34:54
(UTC+00:00)

Vanguard 2 Rocket - Pass Details

Date: 05 October 2022
Orbit: 555 x 3321 km, 32.9° (Epoch: 05 December)

Event Time Altitude Azimuth Distance (km) Brightness Sun altitude
Rises 23:49:56 0° 260° (W) 6,767 11.4 -61.6°
Enters shadow 23:54:33 - 261° (W) 5,530 10.8 -61.8°
Reaches altitude 10° 23:55:00 10° 261° (W) 5,407 - -61.8°
Maximum altitude 00:09:46 89° 176° (S) 1,729 - -62.0°
Drops below altitude 10° 00:17:45 10° 85° (E) 3,101 - -61.9°
Sets 00:19:55 0° 85° (E) 3,812 - -61.9°
